Regional Weather Roundup
Issued by NWS Midland/Odessa, TX

Home | Current Version | Previous Version | Text Only | Print | Product List | Glossary On
Versions: 1 2 3 4 5 6 7 8 9 10 11 12 13 14 15 16 17 18 19 20 21 22 23 24 25 26 27 28 29 30 31 32 33 34 35 36 37 38 39 40 41 42 43 44 45 46 47 48 49 50
000
ASUS44 KMAF 280701
RWRMAF
MIDLAND AREA WEATHER ROUNDUP
NATIONAL WEATHER SERVICE MIDLAND TX
200 AM CDT THU MAY 28 2015

...IN SOUTHWEST TEXAS AND SOUTHEAST NEW MEXICO...

CITY           SKY/WX    TMP DP  RH WIND       PRES   REMARKS
ALPINE         CLEAR     67  62  82 E7        30.12S
ANDREWS        FAIR      71  63  78 S10       29.97S
ARTESIA        CLEAR     72  63  73 S15       30.01S
BIG SPRING     MOCLDY    75  64  67 SE16G25   29.99F
CARLSBAD       CLEAR     72  58  61 S13       29.99S
DRYDEN           N/A     76  67  73 NE9       29.97S
FORT STOCKTON  CLEAR     72  65  78 SE16G24   29.98F
GUAD PASS      CLEAR     65  54  67 NE24      30.11S
HOBBS          CLEAR     64  64 100 S6        30.01F
MARFA          CLEAR     63  59  88 CALM      30.11S
MIDLAND AIRPK  PTCLDY    74  64  70 S18G24    29.96F
MIDLAND INTL   PTCLDY    73  64  73 S18       29.97S
ODESSA         CLEAR     73  63  70 S20G26    29.99R
PECOS          CLEAR     72  65  77 SE13      29.97S
PRESIDIO       FAIR      79  62  56 NE13      29.93R
SEMINOLE       PTCLDY    67  60  76 S6        30.00F
SNYDER         CLOUDY    71  66  86 S13       30.02S
WINK           PTCLDY    73  63  70 SE14      29.95F
$$
...OTHER STATIONS IN TEXAS...

CITY           SKY/WX    TMP DP  RH WIND       PRES   REMARKS
ABILENE        MOCLDY    74  70  87 SE15      30.03F
AMARILLO       CLOUDY    65  55  70 SE23G29   30.04R
AUSTIN         CLOUDY    74  72  93 S7        30.05S
BROWNSVILLE    CLOUDY    81  78  91 SE13      29.98F
CORPUS CHRISTI CLOUDY    81  76  84 SE13      30.00S
DALLAS FTW     CLOUDY    73  71  93 SE8       30.03S
DEL RIO        CLOUDY    78  72  81 SE13      29.97S
EL PASO        CLOUDY    77  51  40 S6        30.01R
HOUSTON INT    PTCLDY    73  72  96 SE3       30.04F
LUBBOCK        CLOUDY    70  66  87 E15       30.04S
SAN ANGELO     CLOUDY    73  67  81 SE8       30.01F
SAN ANTONIO    CLOUDY    76  72  87 SE12      30.05F
WACO           CLOUDY    74  71  91 S13       30.02F
WICHITA FALLS  NOT AVBL
$$
...OTHER LOCATIONS IN NEW MEXICO...

CITY           SKY/WX    TMP DP  RH WIND       PRES   REMARKS
ALAMAGORDO     MOCLDY    73  37  27 S13       30.00F
ALBUQUERQUE    PTCLDY    63  28  26 S5        30.07R
CANNON AFB     PTCLDY    62  57  83 SE5       30.07S
CLOVIS         PTCLDY    59  54  82 SE6         N/A
HOLLOMAN AFB   MOCLDY    75  49  38 S17       29.98S
ROSWELL        CLEAR     69  59  70 S9        30.00F
RUIDOSO        PTCLDY    55  34  44 E3        30.21F
SANTA FE       MOCLDY    53  34  48 N6        30.11F
TRUTH OR CONSE PTCLDY    66  14  13 W3        30.04R
TUCUMCARI      PTCLDY    66  56  70 S10       30.03R
$$



USA.gov is the U.S. government's official web portal to all federal, state and local government web resources and services.